N500RS ENZV-EKVG

Flight info

Callsign N500RS
Flight time 2h 8m
Altitude 28000
Route ALUVA DCT GUNPA/M043F280 DCT ROBUR
Aircraft P46T/L-SBDGRWY/SB1

Departure

Time 2026-05-09 05:09
Airport Stavanger Airport, Sola (ENZV)

Arrival

Time 2026-05-09 07:18
Airport Vágar Airport (EKVG)
Time Latitude Longitude Altitude Speed Heading
2026-05-09 04:50 58.88619 5.62644 20 ft 0 kts 222°
2026-05-09 05:00 58.88618 5.62641 20 ft 2 kts 221°
2026-05-09 05:00 58.88599 5.62660 20 ft 4 kts 121°
2026-05-09 05:00 58.88561 5.62756 21 ft 14 kts 130°
2026-05-09 05:00 58.88537 5.62912 21 ft 11 kts 95°
2026-05-09 05:01 58.88483 5.63024 21 ft 12 kts 134°
2026-05-09 05:01 58.88426 5.63144 22 ft 12 kts 115°
2026-05-09 05:01 58.88440 5.63297 22 ft 11 kts 74°
2026-05-09 05:01 58.88476 5.63421 21 ft 12 kts 16°
2026-05-09 05:02 58.88571 5.63416 20 ft 16 kts 357°
2026-05-09 05:02 58.88691 5.63416 19 ft 18 kts
2026-05-09 05:02 58.88820 5.63414 18 ft 20 kts 358°
2026-05-09 05:02 58.88959 5.63408 17 ft 20 kts 359°
2026-05-09 05:03 58.89095 5.63407 16 ft 19 kts 359°
2026-05-09 05:03 58.89220 5.63403 14 ft 15 kts 359°
2026-05-09 05:03 58.89310 5.63402 14 ft 12 kts
2026-05-09 05:03 58.89345 5.63489 14 ft 6 kts 83°
2026-05-09 05:04 58.89345 5.63537 14 ft 0 kts 90°
2026-05-09 05:06 58.89345 5.63538 14 ft 1 kts 90°
2026-05-09 05:06 58.89345 5.63593 14 ft 8 kts 90°
2026-05-09 05:06 58.89339 5.63720 14 ft 12 kts 122°
2026-05-09 05:07 58.89313 5.63734 15 ft 0 kts 183°
2026-05-09 05:07 58.89312 5.63734 15 ft 0 kts 182°
2026-05-09 05:08 58.89286 5.63733 15 ft 22 kts 177°
2026-05-09 05:08 58.88937 5.63744 17 ft 77 kts 178°
2026-05-09 05:08 58.88283 5.63769 115 ft 105 kts 177°
2026-05-09 05:09 58.87525 5.63816 504 ft 112 kts 177°
2026-05-09 05:09 58.86744 5.63855 1076 ft 111 kts 179°
2026-05-09 05:09 58.85982 5.63882 1614 ft 109 kts 179°
2026-05-09 05:09 58.85226 5.63897 2159 ft 107 kts 181°
2026-05-09 05:10 58.84478 5.63901 2674 ft 108 kts 182°
2026-05-09 05:10 58.83720 5.63917 3158 ft 109 kts 182°
2026-05-09 05:10 58.82955 5.63937 3626 ft 111 kts 182°
2026-05-09 05:10 58.82187 5.63958 4096 ft 113 kts 182°
2026-05-09 05:11 58.81403 5.63980 4609 ft 113 kts 182°
2026-05-09 05:11 58.80620 5.64003 5127 ft 112 kts 182°
2026-05-09 05:11 58.79858 5.63797 5601 ft 113 kts 208°
2026-05-09 05:11 58.79274 5.62770 6092 ft 117 kts 232°
2026-05-09 05:12 58.79036 5.61237 6567 ft 125 kts 262°
2026-05-09 05:12 58.79299 5.59581 7030 ft 138 kts 297°
2026-05-09 05:12 58.80006 5.58259 7493 ft 144 kts 311°
2026-05-09 05:12 58.80738 5.56986 7968 ft 144 kts 311°
2026-05-09 05:13 58.81477 5.55690 8448 ft 144 kts 311°
2026-05-09 05:13 58.82219 5.54390 8934 ft 144 kts 311°
2026-05-09 05:13 58.82963 5.53084 9418 ft 145 kts 312°
2026-05-09 05:13 58.83708 5.51773 9903 ft 145 kts 312°
2026-05-09 05:14 58.84456 5.50457 10352 ft 146 kts 312°
2026-05-09 05:14 58.85207 5.49135 10788 ft 146 kts 312°
2026-05-09 05:14 58.85958 5.47812 11226 ft 146 kts 312°
2026-05-09 05:14 58.86701 5.46502 11658 ft 147 kts 312°
2026-05-09 05:15 58.87462 5.45183 12094 ft 148 kts 316°
2026-05-09 05:15 58.88417 5.44206 12334 ft 167 kts 330°
2026-05-09 05:15 58.89499 5.43234 12638 ft 172 kts 329°
2026-05-09 05:15 58.90581 5.42244 13079 ft 172 kts 329°
2026-05-09 05:16 58.91666 5.41248 13503 ft 173 kts 329°
2026-05-09 05:16 58.92757 5.40244 13930 ft 174 kts 328°
2026-05-09 05:16 58.93852 5.39236 14312 ft 175 kts 328°
2026-05-09 05:16 58.94954 5.38221 14669 ft 176 kts 328°
2026-05-09 05:17 58.96065 5.37195 15027 ft 178 kts 328°
2026-05-09 05:17 58.97173 5.36174 15386 ft 179 kts 328°
2026-05-09 05:17 58.98305 5.35129 15743 ft 181 kts 327°
2026-05-09 05:17 58.99444 5.34077 16109 ft 182 kts 327°
2026-05-09 05:18 59.00594 5.33013 16472 ft 184 kts 327°
2026-05-09 05:18 59.01755 5.31940 16833 ft 185 kts 327°
2026-05-09 05:18 59.02923 5.30858 17189 ft 187 kts 326°
2026-05-09 05:18 59.04099 5.29768 17545 ft 188 kts 326°
2026-05-09 05:19 59.05285 5.28668 17897 ft 190 kts 326°
2026-05-09 05:19 59.06480 5.27559 18263 ft 191 kts 326°
2026-05-09 05:19 59.07668 5.26456 18600 ft 192 kts 325°
2026-05-09 05:19 59.08880 5.25330 18925 ft 193 kts 325°
2026-05-09 05:20 59.10097 5.24200 19248 ft 194 kts 325°
2026-05-09 05:20 59.11316 5.23064 19567 ft 195 kts 324°
2026-05-09 05:20 59.12540 5.21923 19888 ft 196 kts 324°
2026-05-09 05:20 59.13771 5.20776 20217 ft 196 kts 324°
2026-05-09 05:21 59.15004 5.19625 20539 ft 197 kts 324°
2026-05-09 05:21 59.16245 5.18467 20869 ft 198 kts 323°
2026-05-09 05:21 59.17489 5.17304 21187 ft 199 kts 323°
2026-05-09 05:21 59.18723 5.16150 21499 ft 200 kts 323°
2026-05-09 05:22 59.19979 5.14974 21810 ft 201 kts 323°
2026-05-09 05:22 59.21239 5.13794 22130 ft 201 kts 323°
2026-05-09 05:22 59.22506 5.12605 22444 ft 202 kts 322°
2026-05-09 05:22 59.23778 5.11411 22761 ft 203 kts 322°
2026-05-09 05:23 59.25057 5.10210 23072 ft 204 kts 322°
2026-05-09 05:23 59.26341 5.09003 23388 ft 205 kts 322°
2026-05-09 05:23 59.27631 5.07790 23697 ft 206 kts 322°
2026-05-09 05:23 59.28911 5.06585 23965 ft 207 kts 322°
2026-05-09 05:24 59.30211 5.05360 24221 ft 208 kts 321°
2026-05-09 05:24 59.31516 5.04129 24472 ft 208 kts 321°
2026-05-09 05:24 59.32821 5.02897 24721 ft 209 kts 321°
2026-05-09 05:24 59.34132 5.01657 24978 ft 209 kts 321°
2026-05-09 05:25 59.35446 5.00414 25232 ft 210 kts 321°
2026-05-09 05:25 59.36763 4.99169 25492 ft 211 kts 320°
2026-05-09 05:25 59.39193 4.96261 26019 ft 196 kts 302°
2026-05-09 05:26 59.40058 4.94301 26291 ft 185 kts 291°
2026-05-09 05:26 59.40780 4.92252 26558 ft 186 kts 291°
2026-05-09 05:26 59.41528 4.90182 26828 ft 186 kts 291°
2026-05-09 05:26 59.42273 4.88110 27090 ft 186 kts 291°
2026-05-09 05:27 59.43018 4.86031 27354 ft 186 kts 291°
2026-05-09 05:27 59.43761 4.83950 27613 ft 186 kts 291°
2026-05-09 05:27 59.44507 4.81864 27869 ft 187 kts 291°
2026-05-09 05:27 59.45252 4.79775 28112 ft 187 kts 291°
2026-05-09 05:28 59.46007 4.77651 28197 ft 194 kts 291°
2026-05-09 05:28 59.46786 4.75455 28207 ft 203 kts 291°
2026-05-09 05:28 59.47611 4.73147 28212 ft 210 kts 292°
2026-05-09 05:28 59.48452 4.70763 28210 ft 214 kts 291°
2026-05-09 05:29 59.49308 4.68326 28211 ft 219 kts 291°
2026-05-09 05:29 59.50191 4.65842 28211 ft 224 kts 292°
2026-05-09 05:29 59.51093 4.63308 28211 ft 228 kts 292°
2026-05-09 05:29 59.52009 4.60725 28216 ft 231 kts 292°
2026-05-09 05:30 59.52935 4.58111 28211 ft 234 kts 292°
2026-05-09 05:30 59.53868 4.55473 28211 ft 235 kts 292°
2026-05-09 05:30 59.54802 4.52828 28215 ft 235 kts 292°
2026-05-09 05:30 59.55725 4.50215 28215 ft 235 kts 292°
2026-05-09 05:31 59.56654 4.47578 28212 ft 233 kts 291°
2026-05-09 05:31 59.57577 4.44956 28214 ft 232 kts 291°
2026-05-09 05:31 59.58492 4.42348 28214 ft 231 kts 291°
2026-05-09 05:31 59.59406 4.39743 28212 ft 231 kts 291°
2026-05-09 05:32 59.60319 4.37138 28215 ft 231 kts 291°
2026-05-09 05:32 59.61231 4.34536 28218 ft 230 kts 291°
2026-05-09 05:32 59.62141 4.31936 28216 ft 230 kts 291°
2026-05-09 05:32 59.63048 4.29339 28216 ft 230 kts 291°
2026-05-09 05:33 59.63955 4.26739 28217 ft 229 kts 291°
2026-05-09 05:33 59.64848 4.24180 28216 ft 229 kts 291°
2026-05-09 05:33 59.65750 4.21589 28216 ft 229 kts 291°
2026-05-09 05:33 59.66651 4.19001 28213 ft 229 kts 291°
2026-05-09 05:34 59.67550 4.16413 28212 ft 228 kts 291°
2026-05-09 05:34 59.68450 4.13822 28218 ft 228 kts 290°
2026-05-09 05:34 59.69347 4.11234 28214 ft 228 kts 290°
2026-05-09 05:34 59.70242 4.08649 28216 ft 227 kts 290°
2026-05-09 05:35 59.71137 4.06063 28212 ft 227 kts 290°
2026-05-09 05:35 59.72029 4.03483 28213 ft 227 kts 290°
2026-05-09 05:35 59.72907 4.00939 28209 ft 227 kts 290°
2026-05-09 05:35 59.73797 3.98359 28213 ft 226 kts 290°
2026-05-09 05:36 59.74685 3.95782 28215 ft 226 kts 290°
2026-05-09 05:36 59.75572 3.93204 28205 ft 226 kts 290°
2026-05-09 05:36 59.76459 3.90624 28211 ft 226 kts 290°
2026-05-09 05:36 59.77343 3.88050 28214 ft 226 kts 290°
2026-05-09 05:37 59.78225 3.85476 28216 ft 226 kts 290°
2026-05-09 05:37 59.79107 3.82902 28210 ft 225 kts 290°
2026-05-09 05:37 59.79989 3.80326 28215 ft 225 kts 290°
2026-05-09 05:37 59.80857 3.77787 28209 ft 225 kts 290°
2026-05-09 05:38 59.81736 3.75212 28209 ft 225 kts 289°
2026-05-09 05:38 59.82614 3.72638 28207 ft 225 kts 289°
2026-05-09 05:38 59.83491 3.70065 28210 ft 225 kts 289°
2026-05-09 05:38 59.84368 3.67490 28208 ft 225 kts 289°
2026-05-09 05:39 59.85241 3.64920 28206 ft 224 kts 289°
2026-05-09 05:39 59.86114 3.62349 28208 ft 224 kts 289°
2026-05-09 05:39 59.86985 3.59782 28205 ft 224 kts 289°
2026-05-09 05:39 59.87856 3.57213 28207 ft 224 kts 289°
2026-05-09 05:40 59.88714 3.54677 28204 ft 224 kts 289°
2026-05-09 05:40 59.89582 3.52109 28209 ft 224 kts 289°
2026-05-09 05:40 59.90450 3.49539 28208 ft 223 kts 289°
2026-05-09 05:40 59.91318 3.46967 28206 ft 223 kts 289°
2026-05-09 05:41 59.92183 3.44400 28202 ft 223 kts 289°
2026-05-09 05:41 59.93050 3.41825 28204 ft 223 kts 288°
2026-05-09 05:41 59.93915 3.39253 28205 ft 223 kts 288°
2026-05-09 05:41 59.94780 3.36676 28202 ft 223 kts 288°
2026-05-09 05:42 59.95644 3.34103 28203 ft 223 kts 288°
2026-05-09 05:42 59.96497 3.31560 28203 ft 223 kts 288°
2026-05-09 05:42 59.97360 3.28981 28203 ft 223 kts 288°
2026-05-09 05:42 59.98220 3.26408 28202 ft 223 kts 288°
2026-05-09 05:43 59.99081 3.23831 28199 ft 223 kts 288°
2026-05-09 05:43 59.99941 3.21255 28199 ft 223 kts 288°
2026-05-09 05:43 60.00800 3.18677 28200 ft 223 kts 288°
2026-05-09 05:43 60.01659 3.16097 28200 ft 223 kts 288°
2026-05-09 05:44 60.02516 3.13522 28199 ft 223 kts 288°
2026-05-09 05:44 60.03362 3.10975 28195 ft 223 kts 288°
2026-05-09 05:44 60.04218 3.08396 28198 ft 223 kts 287°
2026-05-09 05:44 60.05073 3.05816 28198 ft 223 kts 287°
2026-05-09 05:45 60.05928 3.03232 28194 ft 223 kts 287°
2026-05-09 05:45 60.06782 3.00652 28197 ft 222 kts 287°
2026-05-09 05:45 60.07635 2.98069 28194 ft 222 kts 287°
2026-05-09 05:45 60.08489 2.95483 28194 ft 222 kts 287°
2026-05-09 05:46 60.09341 2.92898 28197 ft 222 kts 287°
2026-05-09 05:46 60.10193 2.90312 28196 ft 222 kts 287°
2026-05-09 05:46 60.11033 2.87757 28191 ft 222 kts 287°
2026-05-09 05:46 60.11884 2.85168 28191 ft 222 kts 287°
2026-05-09 05:47 60.12734 2.82578 28190 ft 222 kts 287°
2026-05-09 05:47 60.13583 2.79987 28190 ft 222 kts 287°
2026-05-09 05:47 60.14431 2.77398 28192 ft 222 kts 287°
2026-05-09 05:47 60.15278 2.74809 28189 ft 222 kts 287°
2026-05-09 05:48 60.16125 2.72217 28188 ft 222 kts 286°
2026-05-09 05:48 60.16971 2.69624 28190 ft 222 kts 286°
2026-05-09 05:48 60.17816 2.67031 28189 ft 222 kts 286°
2026-05-09 05:48 60.18663 2.64433 28188 ft 222 kts 286°
2026-05-09 05:49 60.19495 2.61874 28185 ft 222 kts 286°
2026-05-09 05:49 60.20340 2.59275 28186 ft 222 kts 286°
2026-05-09 05:49 60.21183 2.56675 28183 ft 222 kts 286°
2026-05-09 05:49 60.22028 2.54071 28187 ft 222 kts 286°
2026-05-09 05:50 60.22870 2.51470 28175 ft 222 kts 286°
2026-05-09 05:50 60.23712 2.48869 28185 ft 222 kts 286°
2026-05-09 05:50 60.24553 2.46264 28181 ft 222 kts 286°
2026-05-09 05:50 60.25394 2.43659 28179 ft 222 kts 286°
2026-05-09 05:51 60.26235 2.41052 28183 ft 222 kts 286°
2026-05-09 05:51 60.27064 2.38475 28178 ft 222 kts 285°
2026-05-09 05:51 60.27904 2.35864 28183 ft 222 kts 285°
2026-05-09 05:51 60.28745 2.33247 28178 ft 222 kts 285°
2026-05-09 05:52 60.29584 2.30634 28180 ft 222 kts 285°
2026-05-09 05:52 60.30423 2.28016 28179 ft 222 kts 285°
2026-05-09 05:52 60.31263 2.25395 28178 ft 223 kts 285°
2026-05-09 05:52 60.32103 2.22768 28182 ft 223 kts 285°
2026-05-09 05:53 60.32942 2.20140 28179 ft 223 kts 285°
2026-05-09 05:53 60.33770 2.17547 28176 ft 223 kts 286°
2026-05-09 05:53 60.34611 2.14911 28178 ft 223 kts 286°
2026-05-09 05:53 60.35451 2.12272 28179 ft 223 kts 286°
2026-05-09 05:54 60.36292 2.09628 28179 ft 224 kts 286°
2026-05-09 05:54 60.37132 2.06982 28175 ft 224 kts 286°
2026-05-09 05:54 60.37973 2.04333 28178 ft 224 kts 286°
2026-05-09 05:54 60.38815 2.01677 28174 ft 224 kts 286°
2026-05-09 05:55 60.39657 1.99018 28178 ft 225 kts 286°
2026-05-09 05:55 60.40488 1.96390 28178 ft 225 kts 286°
2026-05-09 05:55 60.41331 1.93723 28177 ft 225 kts 287°
2026-05-09 05:55 60.42174 1.91050 28173 ft 225 kts 287°
2026-05-09 05:56 60.43018 1.88371 28177 ft 226 kts 287°
2026-05-09 05:56 60.43862 1.85691 28174 ft 226 kts 287°
2026-05-09 05:56 60.44707 1.83003 28171 ft 226 kts 287°
2026-05-09 05:56 60.45552 1.80314 28173 ft 226 kts 287°
2026-05-09 05:57 60.46397 1.77620 28177 ft 227 kts 287°
2026-05-09 05:57 60.47242 1.74923 28173 ft 227 kts 287°
2026-05-09 05:57 60.48076 1.72260 28175 ft 227 kts 287°
2026-05-09 05:57 60.48921 1.69555 28174 ft 227 kts 287°
2026-05-09 05:58 60.49768 1.66846 28170 ft 227 kts 287°
2026-05-09 05:58 60.50613 1.64134 28173 ft 228 kts 287°
2026-05-09 05:58 60.51460 1.61418 28171 ft 228 kts 287°
2026-05-09 05:58 60.52306 1.58697 28172 ft 228 kts 288°
2026-05-09 05:59 60.53153 1.55971 28172 ft 228 kts 288°
2026-05-09 05:59 60.54002 1.53237 28171 ft 229 kts 288°
2026-05-09 05:59 60.54838 1.50540 28167 ft 229 kts 288°
2026-05-09 05:59 60.55686 1.47801 28170 ft 229 kts 288°
2026-05-09 06:00 60.56534 1.45061 28171 ft 229 kts 288°
2026-05-09 06:00 60.57382 1.42316 28168 ft 230 kts 288°
2026-05-09 06:00 60.58232 1.39563 28168 ft 230 kts 288°
2026-05-09 06:00 60.59081 1.36808 28169 ft 230 kts 288°
2026-05-09 06:01 60.59929 1.34052 28168 ft 230 kts 288°
2026-05-09 06:01 60.60780 1.31285 28165 ft 230 kts 288°
2026-05-09 06:01 60.61630 1.28520 28162 ft 231 kts 288°
2026-05-09 06:01 60.62468 1.25786 28162 ft 231 kts 288°
2026-05-09 06:02 60.63318 1.23012 28163 ft 231 kts 288°
2026-05-09 06:02 60.64169 1.20233 28161 ft 231 kts 288°
2026-05-09 06:02 60.65019 1.17451 28157 ft 231 kts 289°
2026-05-09 06:02 60.65870 1.14665 28153 ft 231 kts 289°
2026-05-09 06:03 60.66720 1.11877 28156 ft 232 kts 289°
2026-05-09 06:03 60.67569 1.09088 28155 ft 232 kts 289°
2026-05-09 06:03 60.68419 1.06295 28159 ft 232 kts 289°
2026-05-09 06:03 60.69268 1.03502 28159 ft 232 kts 289°
2026-05-09 06:04 60.70117 1.00701 28155 ft 232 kts 289°
2026-05-09 06:04 60.70956 0.97933 28158 ft 232 kts 289°
2026-05-09 06:04 60.71807 0.95123 28152 ft 233 kts 289°
2026-05-09 06:04 60.72657 0.92311 28152 ft 233 kts 289°
2026-05-09 06:05 60.73507 0.89497 28156 ft 233 kts 289°
2026-05-09 06:05 60.74356 0.86680 28156 ft 233 kts 289°
2026-05-09 06:05 60.75207 0.83855 28154 ft 233 kts 289°
2026-05-09 06:05 60.76058 0.81029 28151 ft 233 kts 289°
2026-05-09 06:06 60.76907 0.78202 28150 ft 234 kts 289°
2026-05-09 06:06 60.77757 0.75370 28149 ft 234 kts 289°
2026-05-09 06:06 60.78596 0.72572 28152 ft 234 kts 289°
2026-05-09 06:06 60.79445 0.69735 28152 ft 234 kts 289°
2026-05-09 06:07 60.80295 0.66895 28151 ft 234 kts 290°
2026-05-09 06:07 60.81144 0.64050 28149 ft 234 kts 290°
2026-05-09 06:07 60.81993 0.61205 28150 ft 234 kts 290°
2026-05-09 06:07 60.82842 0.58354 28142 ft 234 kts 290°
2026-05-09 06:08 60.83691 0.55501 28152 ft 234 kts 290°
2026-05-09 06:08 60.84540 0.52645 28148 ft 234 kts 290°
2026-05-09 06:08 60.85376 0.49827 28147 ft 235 kts 290°
2026-05-09 06:08 60.86224 0.46967 28141 ft 235 kts 290°
2026-05-09 06:09 60.87072 0.44103 28146 ft 235 kts 290°
2026-05-09 06:09 60.87920 0.41234 28141 ft 235 kts 290°
2026-05-09 06:09 60.88767 0.38368 28143 ft 235 kts 290°
2026-05-09 06:09 60.89613 0.35499 28139 ft 235 kts 290°
2026-05-09 06:10 60.90459 0.32626 28142 ft 235 kts 290°
2026-05-09 06:10 60.91306 0.29748 28141 ft 235 kts 290°
2026-05-09 06:10 60.92152 0.26869 28140 ft 235 kts 290°
2026-05-09 06:10 60.92986 0.24027 28139 ft 235 kts 290°
2026-05-09 06:11 60.93832 0.21142 28135 ft 236 kts 290°
2026-05-09 06:11 60.94677 0.18257 28140 ft 236 kts 290°
2026-05-09 06:11 60.95521 0.15368 28140 ft 236 kts 291°
2026-05-09 06:11 60.96365 0.12478 28134 ft 236 kts 291°
2026-05-09 06:12 60.97210 0.09582 28130 ft 236 kts 291°
2026-05-09 06:12 60.98054 0.06685 28134 ft 236 kts 291°
2026-05-09 06:12 60.98897 0.03784 28134 ft 236 kts 291°
2026-05-09 06:12 60.99734 0.00879 28134 ft 235 kts 289°
2026-05-09 06:13 61.00348 -0.02121 28133 ft 228 kts 279°
2026-05-09 06:13 61.00840 -0.05222 28135 ft 228 kts 280°
2026-05-09 06:13 61.01349 -0.08317 28135 ft 228 kts 280°
2026-05-09 06:13 61.01856 -0.11418 28134 ft 228 kts 280°
2026-05-09 06:14 61.02360 -0.14525 28135 ft 228 kts 280°
2026-05-09 06:14 61.02863 -0.17636 28131 ft 229 kts 280°
2026-05-09 06:14 61.03365 -0.20747 28132 ft 229 kts 280°
2026-05-09 06:14 61.03868 -0.23864 28132 ft 229 kts 280°
2026-05-09 06:15 61.04363 -0.26940 28132 ft 229 kts 280°
2026-05-09 06:15 61.04864 -0.30059 28131 ft 229 kts 280°
2026-05-09 06:15 61.05366 -0.33186 28135 ft 230 kts 280°
2026-05-09 06:15 61.05867 -0.36317 28122 ft 230 kts 280°
2026-05-09 06:16 61.06368 -0.39449 28129 ft 230 kts 280°
2026-05-09 06:16 61.06869 -0.42585 28133 ft 230 kts 281°
2026-05-09 06:16 61.07369 -0.45724 28132 ft 230 kts 281°
2026-05-09 06:16 61.07869 -0.48869 28130 ft 230 kts 281°
2026-05-09 06:17 61.08368 -0.52013 28135 ft 231 kts 281°
2026-05-09 06:17 61.08867 -0.55163 28132 ft 231 kts 281°
2026-05-09 06:17 61.09366 -0.58317 28127 ft 231 kts 281°
2026-05-09 06:17 61.09857 -0.61428 28130 ft 231 kts 281°
2026-05-09 06:18 61.10355 -0.64588 28134 ft 231 kts 281°
2026-05-09 06:18 61.10853 -0.67751 28131 ft 231 kts 281°
2026-05-09 06:18 61.11350 -0.70917 28127 ft 232 kts 281°
2026-05-09 06:18 61.11847 -0.74083 28131 ft 232 kts 281°
2026-05-09 06:19 61.12343 -0.77257 28125 ft 232 kts 281°
2026-05-09 06:19 61.12839 -0.80431 28129 ft 232 kts 281°
2026-05-09 06:19 61.13334 -0.83607 28132 ft 232 kts 281°
2026-05-09 06:19 61.13823 -0.86746 28130 ft 232 kts 281°
2026-05-09 06:20 61.14317 -0.89931 28131 ft 232 kts 281°
2026-05-09 06:20 61.14812 -0.93119 28128 ft 233 kts 281°
2026-05-09 06:20 61.15306 -0.96308 28129 ft 233 kts 281°
2026-05-09 06:20 61.15799 -0.99504 28133 ft 233 kts 281°
2026-05-09 06:21 61.16292 -1.02700 28132 ft 233 kts 281°
2026-05-09 06:21 61.16785 -1.05900 28126 ft 233 kts 281°
2026-05-09 06:21 61.17271 -1.09061 28124 ft 233 kts 281°
2026-05-09 06:21 61.17762 -1.12266 28128 ft 234 kts 281°
2026-05-09 06:22 61.18253 -1.15474 28130 ft 234 kts 281°
2026-05-09 06:22 61.18744 -1.18686 28129 ft 234 kts 281°
2026-05-09 06:22 61.19234 -1.21901 28129 ft 234 kts 281°
2026-05-09 06:22 61.19724 -1.25119 28129 ft 234 kts 281°
2026-05-09 06:23 61.20214 -1.28342 28130 ft 234 kts 281°
2026-05-09 06:23 61.20702 -1.31563 28130 ft 234 kts 282°
2026-05-09 06:23 61.21184 -1.34745 28127 ft 235 kts 282°
2026-05-09 06:23 61.21672 -1.37974 28128 ft 235 kts 282°
2026-05-09 06:24 61.22160 -1.41209 28127 ft 235 kts 282°
2026-05-09 06:24 61.22647 -1.44445 28130 ft 235 kts 282°
2026-05-09 06:24 61.23133 -1.47679 28127 ft 235 kts 282°
2026-05-09 06:24 61.23619 -1.50920 28129 ft 235 kts 282°
2026-05-09 06:25 61.24105 -1.54163 28126 ft 235 kts 282°
2026-05-09 06:25 61.24425 -1.56308 28130 ft 235 kts 282°
2026-05-09 06:25 61.25066 -1.60605 28128 ft 235 kts 282°
2026-05-09 06:25 61.25549 -1.63849 28129 ft 235 kts 282°
2026-05-09 06:26 61.26031 -1.67096 28124 ft 235 kts 282°
2026-05-09 06:26 61.26513 -1.70348 28128 ft 235 kts 282°
2026-05-09 06:26 61.26994 -1.73596 28125 ft 235 kts 282°
2026-05-09 06:26 61.27474 -1.76847 28129 ft 235 kts 282°
2026-05-09 06:27 61.27953 -1.80099 28130 ft 235 kts 282°
2026-05-09 06:27 61.28270 -1.82250 28132 ft 235 kts 282°
2026-05-09 06:27 61.28902 -1.86557 28130 ft 235 kts 282°
2026-05-09 06:27 61.29379 -1.89806 28130 ft 235 kts 282°
2026-05-09 06:28 61.29854 -1.93055 28129 ft 235 kts 282°
2026-05-09 06:28 61.30328 -1.96304 28130 ft 235 kts 282°
2026-05-09 06:28 61.30802 -1.99557 28130 ft 235 kts 282°
2026-05-09 06:28 61.31275 -2.02806 28128 ft 235 kts 282°
2026-05-09 06:29 61.31587 -2.04957 28130 ft 235 kts 282°
2026-05-09 06:29 61.32059 -2.08212 28129 ft 235 kts 282°
2026-05-09 06:29 61.32530 -2.11466 28133 ft 235 kts 282°
2026-05-09 06:29 61.33151 -2.15773 28132 ft 235 kts 282°
2026-05-09 06:30 61.33621 -2.19032 28130 ft 235 kts 282°
2026-05-09 06:30 61.34088 -2.22283 28131 ft 235 kts 282°
2026-05-09 06:30 61.34404 -2.24484 28133 ft 235 kts 282°
2026-05-09 06:30 61.35021 -2.28794 28128 ft 234 kts 282°
2026-05-09 06:31 61.35329 -2.30951 28129 ft 234 kts 282°
2026-05-09 06:31 61.35794 -2.34209 28128 ft 234 kts 282°
2026-05-09 06:31 61.36258 -2.37461 28129 ft 234 kts 282°
2026-05-09 06:31 61.36720 -2.40719 28128 ft 234 kts 282°
2026-05-09 06:32 61.37332 -2.45031 28131 ft 234 kts 282°
2026-05-09 06:32 61.37644 -2.47234 28132 ft 234 kts 282°
2026-05-09 06:32 61.38104 -2.50491 28132 ft 234 kts 282°
2026-05-09 06:33 61.39015 -2.56959 28134 ft 234 kts 282°
2026-05-09 06:33 61.39473 -2.60218 28133 ft 234 kts 282°
2026-05-09 06:33 61.39929 -2.63472 28133 ft 234 kts 282°
2026-05-09 06:34 61.40840 -2.69990 28137 ft 234 kts 282°
2026-05-09 06:34 61.41293 -2.73245 28132 ft 234 kts 282°
2026-05-09 06:34 61.41746 -2.76503 28136 ft 234 kts 282°
2026-05-09 06:34 61.42193 -2.79715 28135 ft 234 kts 282°
2026-05-09 06:35 61.42644 -2.82975 28136 ft 233 kts 282°
2026-05-09 06:35 61.43094 -2.86230 28133 ft 233 kts 282°
2026-05-09 06:35 61.43543 -2.89487 28138 ft 233 kts 282°
2026-05-09 06:35 61.43992 -2.92748 28132 ft 233 kts 282°
2026-05-09 06:36 61.44439 -2.96004 28140 ft 233 kts 282°
2026-05-09 06:36 61.44885 -2.99257 28139 ft 233 kts 282°
2026-05-09 06:36 61.45332 -3.02516 28136 ft 233 kts 282°
2026-05-09 06:36 61.45776 -3.05777 28136 ft 233 kts 283°
2026-05-09 06:37 61.46221 -3.09037 28139 ft 233 kts 282°
2026-05-09 06:37 61.46658 -3.12251 28139 ft 233 kts 283°
2026-05-09 06:37 61.47101 -3.15509 28140 ft 233 kts 282°
2026-05-09 06:37 61.47542 -3.18767 28139 ft 233 kts 282°
2026-05-09 06:38 61.47983 -3.22029 28143 ft 233 kts 283°
2026-05-09 06:38 61.48422 -3.25288 28144 ft 233 kts 282°
2026-05-09 06:38 61.48861 -3.28546 28143 ft 233 kts 283°
2026-05-09 06:38 61.49300 -3.31809 28143 ft 233 kts 283°
2026-05-09 06:39 61.49737 -3.35074 28146 ft 233 kts 283°
2026-05-09 06:39 61.50172 -3.38333 28144 ft 233 kts 283°
2026-05-09 06:39 61.50603 -3.41554 28140 ft 233 kts 283°
2026-05-09 06:39 61.51038 -3.44818 28140 ft 233 kts 283°
2026-05-09 06:40 61.51471 -3.48078 28141 ft 232 kts 283°
2026-05-09 06:40 61.51904 -3.51341 28143 ft 232 kts 283°
2026-05-09 06:40 61.52336 -3.54600 28144 ft 232 kts 283°
2026-05-09 06:40 61.52767 -3.57863 28145 ft 232 kts 283°
2026-05-09 06:41 61.53198 -3.61124 28145 ft 232 kts 283°
2026-05-09 06:41 61.53627 -3.64388 28146 ft 232 kts 283°
2026-05-09 06:41 61.54055 -3.67651 28142 ft 232 kts 283°
2026-05-09 06:41 61.54482 -3.70911 28140 ft 232 kts 283°
2026-05-09 06:42 61.54904 -3.74134 28146 ft 232 kts 283°
2026-05-09 06:42 61.55330 -3.77402 28142 ft 232 kts 283°
2026-05-09 06:42 61.55756 -3.80667 28152 ft 232 kts 283°
2026-05-09 06:42 61.56179 -3.83933 28144 ft 232 kts 283°
2026-05-09 06:43 61.56604 -3.87203 28150 ft 232 kts 283°
2026-05-09 06:43 61.57027 -3.90470 28145 ft 232 kts 283°
2026-05-09 06:43 61.57448 -3.93741 28143 ft 232 kts 283°
2026-05-09 06:43 61.57863 -3.96962 28145 ft 232 kts 283°
2026-05-09 06:44 61.58285 -4.00236 28069 ft 235 kts 283°
2026-05-09 06:44 61.58717 -4.03602 27802 ft 242 kts 283°
2026-05-09 06:44 61.59160 -4.07059 27484 ft 248 kts 283°
2026-05-09 06:44 61.59611 -4.10581 27150 ft 251 kts 283°
2026-05-09 06:45 61.60062 -4.14113 26817 ft 250 kts 283°
2026-05-09 06:45 61.60510 -4.17633 26492 ft 249 kts 283°
2026-05-09 06:45 61.60954 -4.21133 26161 ft 247 kts 283°
2026-05-09 06:45 61.61393 -4.24603 25835 ft 245 kts 283°
2026-05-09 06:46 61.61823 -4.28013 25520 ft 244 kts 283°
2026-05-09 06:46 61.62256 -4.31446 25198 ft 242 kts 283°
2026-05-09 06:46 61.62684 -4.34857 24880 ft 241 kts 284°
2026-05-09 06:46 61.63110 -4.38253 24565 ft 239 kts 284°
2026-05-09 06:47 61.63531 -4.41615 24250 ft 235 kts 284°
2026-05-09 06:47 61.63943 -4.44900 23936 ft 230 kts 284°
2026-05-09 06:47 61.64345 -4.48136 23622 ft 227 kts 284°
2026-05-09 06:47 61.64740 -4.51317 23303 ft 223 kts 284°
2026-05-09 06:48 61.65130 -4.54463 23011 ft 221 kts 284°
2026-05-09 06:48 61.65511 -4.57547 22723 ft 220 kts 284°
2026-05-09 06:48 61.65896 -4.60665 22436 ft 220 kts 284°
2026-05-09 06:48 61.66281 -4.63781 22143 ft 220 kts 283°
2026-05-09 06:49 61.66664 -4.66898 21854 ft 220 kts 283°
2026-05-09 06:49 61.67046 -4.70010 21563 ft 219 kts 283°
2026-05-09 06:49 61.67428 -4.73120 21278 ft 219 kts 283°
2026-05-09 06:49 61.67807 -4.76223 20989 ft 219 kts 283°
2026-05-09 06:50 61.68185 -4.79325 20702 ft 218 kts 283°
2026-05-09 06:50 61.68557 -4.82378 20418 ft 218 kts 283°
2026-05-09 06:50 61.68933 -4.85474 20130 ft 218 kts 283°
2026-05-09 06:50 61.69308 -4.88565 19844 ft 218 kts 283°
2026-05-09 06:51 61.69682 -4.91657 19555 ft 218 kts 282°
2026-05-09 06:51 61.70055 -4.94744 19269 ft 217 kts 282°
2026-05-09 06:51 61.70425 -4.97816 18987 ft 216 kts 282°
2026-05-09 06:51 61.70793 -5.00876 18702 ft 215 kts 282°
2026-05-09 06:52 61.71160 -5.03930 18413 ft 215 kts 282°
2026-05-09 06:52 61.71524 -5.06975 18109 ft 214 kts 282°
2026-05-09 06:52 61.71886 -5.10003 17826 ft 212 kts 282°
2026-05-09 06:52 61.72245 -5.13019 17543 ft 212 kts 282°
2026-05-09 06:53 61.72598 -5.15983 17269 ft 211 kts 282°
2026-05-09 06:53 61.72953 -5.18973 16991 ft 210 kts 282°
2026-05-09 06:53 61.73307 -5.21963 16715 ft 210 kts 282°
2026-05-09 06:53 61.73660 -5.24946 16441 ft 210 kts 283°
2026-05-09 06:54 61.74012 -5.27928 16162 ft 209 kts 283°
2026-05-09 06:54 61.74362 -5.30909 15887 ft 209 kts 283°
2026-05-09 06:54 61.74712 -5.33887 15615 ft 209 kts 283°
2026-05-09 06:54 61.75061 -5.36854 15338 ft 208 kts 283°
2026-05-09 06:55 61.75407 -5.39806 15069 ft 207 kts 283°
2026-05-09 06:55 61.75744 -5.42701 14801 ft 206 kts 283°
2026-05-09 06:55 61.76085 -5.45621 14535 ft 203 kts 283°
2026-05-09 06:55 61.76421 -5.48510 14264 ft 202 kts 283°
2026-05-09 06:56 61.76754 -5.51384 13998 ft 201 kts 283°
2026-05-09 06:56 61.77085 -5.54238 13717 ft 199 kts 283°
2026-05-09 06:56 61.77412 -5.57069 13458 ft 197 kts 283°
2026-05-09 06:56 61.77736 -5.59874 13201 ft 196 kts 283°
2026-05-09 06:57 61.78056 -5.62660 12947 ft 194 kts 283°
2026-05-09 06:57 61.78370 -5.65387 12694 ft 193 kts 283°
2026-05-09 06:57 61.78685 -5.68135 12440 ft 192 kts 283°
2026-05-09 06:57 61.78997 -5.70862 12191 ft 190 kts 283°
2026-05-09 06:58 61.79307 -5.73579 11940 ft 190 kts 284°
2026-05-09 06:58 61.79617 -5.76291 11691 ft 189 kts 284°
2026-05-09 06:58 61.79925 -5.78995 11440 ft 189 kts 284°
2026-05-09 06:58 61.80231 -5.81690 11192 ft 188 kts 284°
2026-05-09 06:59 61.80536 -5.84376 10941 ft 188 kts 284°
2026-05-09 06:59 61.80838 -5.87046 10698 ft 185 kts 284°
2026-05-09 06:59 61.81130 -5.89635 10458 ft 182 kts 284°
2026-05-09 06:59 61.81422 -5.92224 10214 ft 180 kts 284°
2026-05-09 07:00 61.81711 -5.94792 9970 ft 179 kts 284°
2026-05-09 07:00 61.81998 -5.97346 9728 ft 178 kts 284°
2026-05-09 07:00 61.82282 -5.99883 9493 ft 177 kts 284°
2026-05-09 07:00 61.82565 -6.02415 9263 ft 177 kts 285°
2026-05-09 07:01 61.82847 -6.04940 9030 ft 176 kts 285°
2026-05-09 07:01 61.83131 -6.07477 8632 ft 177 kts 285°
2026-05-09 07:01 61.83407 -6.09951 8380 ft 170 kts 285°
2026-05-09 07:01 61.83674 -6.12369 8158 ft 173 kts 285°
2026-05-09 07:02 61.83952 -6.14871 7930 ft 176 kts 286°
2026-05-09 07:02 61.84233 -6.17404 7695 ft 178 kts 286°
2026-05-09 07:02 61.84515 -6.19959 7461 ft 179 kts 286°
2026-05-09 07:02 61.84798 -6.22522 7222 ft 179 kts 286°
2026-05-09 07:03 61.85082 -6.25097 6987 ft 179 kts 287°
2026-05-09 07:03 61.85363 -6.27655 6753 ft 177 kts 287°
2026-05-09 07:03 61.85641 -6.30191 6508 ft 176 kts 287°
2026-05-09 07:03 61.85913 -6.32679 6280 ft 175 kts 287°
2026-05-09 07:04 61.86187 -6.35184 6053 ft 174 kts 287°
2026-05-09 07:04 61.86456 -6.37657 5822 ft 170 kts 287°
2026-05-09 07:04 61.86720 -6.40086 5597 ft 168 kts 287°
2026-05-09 07:04 61.86982 -6.42491 5371 ft 167 kts 287°
2026-05-09 07:05 61.87241 -6.44872 5161 ft 165 kts 287°
2026-05-09 07:05 61.87496 -6.47235 4939 ft 164 kts 287°
2026-05-09 07:05 61.87750 -6.49581 4717 ft 162 kts 287°
2026-05-09 07:05 61.87997 -6.51871 4505 ft 161 kts 287°
2026-05-09 07:06 61.88246 -6.54179 4292 ft 161 kts 287°
2026-05-09 07:06 61.88494 -6.56490 4079 ft 161 kts 287°
2026-05-09 07:06 61.88872 -6.58651 4011 ft 152 kts 301°
2026-05-09 07:06 61.89377 -6.60563 4003 ft 146 kts 301°
2026-05-09 07:07 61.89856 -6.62442 3998 ft 144 kts 301°
2026-05-09 07:07 61.90324 -6.64264 4015 ft 139 kts 301°
2026-05-09 07:07 61.90784 -6.66051 4014 ft 137 kts 301°
2026-05-09 07:07 61.91239 -6.67819 4017 ft 136 kts 301°
2026-05-09 07:08 61.91691 -6.69577 4015 ft 136 kts 301°
2026-05-09 07:08 61.92136 -6.71308 4012 ft 135 kts 300°
2026-05-09 07:08 61.92586 -6.73064 4021 ft 136 kts 300°
2026-05-09 07:08 61.93037 -6.74823 4014 ft 135 kts 300°
2026-05-09 07:09 61.93485 -6.76575 4014 ft 135 kts 300°
2026-05-09 07:09 61.93932 -6.78322 4016 ft 134 kts 300°
2026-05-09 07:09 61.94378 -6.80065 4009 ft 134 kts 300°
2026-05-09 07:09 61.94834 -6.81790 4008 ft 134 kts 302°
2026-05-09 07:10 61.95304 -6.83494 4015 ft 134 kts 301°
2026-05-09 07:10 61.95755 -6.85224 4013 ft 134 kts 301°
2026-05-09 07:10 61.96195 -6.86940 4003 ft 134 kts 300°
2026-05-09 07:10 61.96631 -6.88692 4010 ft 134 kts 300°
2026-05-09 07:11 61.97067 -6.90449 4008 ft 134 kts 300°
2026-05-09 07:11 61.97509 -6.92198 4009 ft 134 kts 300°
2026-05-09 07:11 61.97946 -6.93956 4009 ft 134 kts 300°
2026-05-09 07:11 61.98373 -6.95667 3999 ft 128 kts 301°
2026-05-09 07:12 61.98779 -6.97286 3955 ft 123 kts 301°
2026-05-09 07:12 61.99183 -6.98910 3765 ft 125 kts 302°
2026-05-09 07:12 61.99593 -7.00556 3577 ft 130 kts 301°
2026-05-09 07:12 62.00027 -7.02284 3345 ft 136 kts 301°
2026-05-09 07:13 62.00469 -7.04059 3125 ft 135 kts 301°
2026-05-09 07:13 62.00909 -7.05824 2902 ft 134 kts 301°
2026-05-09 07:13 62.01328 -7.07515 2666 ft 122 kts 301°
2026-05-09 07:13 62.01710 -7.09037 2478 ft 112 kts 301°
2026-05-09 07:14 62.02067 -7.10478 2290 ft 108 kts 301°
2026-05-09 07:14 62.02416 -7.11871 2120 ft 106 kts 301°
2026-05-09 07:14 62.02757 -7.13250 1947 ft 105 kts 301°
2026-05-09 07:14 62.03095 -7.14592 1781 ft 101 kts 300°
2026-05-09 07:15 62.03400 -7.15835 1626 ft 87 kts 300°
2026-05-09 07:15 62.03644 -7.16852 1503 ft 73 kts 300°
2026-05-09 07:15 62.03883 -7.17815 1380 ft 75 kts 300°
2026-05-09 07:15 62.04109 -7.18815 1220 ft 75 kts 300°
2026-05-09 07:16 62.04346 -7.19795 1038 ft 74 kts 300°
2026-05-09 07:16 62.04586 -7.20739 923 ft 71 kts 300°
2026-05-09 07:16 62.04833 -7.21650 752 ft 70 kts 300°
2026-05-09 07:16 62.05074 -7.22556 699 ft 72 kts 299°
2026-05-09 07:17 62.05325 -7.23562 593 ft 80 kts 296°
2026-05-09 07:17 62.05571 -7.24569 458 ft 76 kts 297°
2026-05-09 07:17 62.05795 -7.25489 333 ft 62 kts 297°
2026-05-09 07:17 62.06001 -7.26316 250 ft 66 kts 298°
2026-05-09 07:18 62.06182 -7.27034 248 ft 41 kts 298°
2026-05-09 07:18 62.06282 -7.27431 252 ft 26 kts 298°
2026-05-09 07:18 62.06359 -7.27740 257 ft 20 kts 298°
2026-05-09 07:18 62.06424 -7.28000 259 ft 20 kts 298°
2026-05-09 07:19 62.06469 -7.28138 260 ft 7 kts 347°
2026-05-09 07:19 62.06519 -7.28104 259 ft 7 kts 27°
2026-05-09 07:19 62.06570 -7.28075 259 ft 8 kts
2026-05-09 07:19 62.06624 -7.28075 259 ft 5 kts 354°
2026-05-09 07:20 62.06636 -7.28079 259 ft 0 kts 348°